Current weather by "City, St" or "zip code"  
 

Current Conditions: MARION REGIONAL

Clear


73.6 F

Last Updated on Jun 17 2024, 10:35 PM CDT
Humidity: 96%
Wind Speed: S 6.9 mph
Barometer 30.03 in
Dewpoint: 72.5 F
Visibility: 10.00 mi
Precip: --
Heat Index: 75.2 F
Wind Chill: NA
Current conditions at:

MARION REGIONAL (KMWA)

Lat: 37.75 Lon: 89.02

active severe weather and emergency alerts image image weather storm and storm spotter reports image weather observation monitoring service image
Active
Alerts
Storm Reports Obs
Monitoring

Sign-up For Email & Text Message Weather Alert Notification Services



Advertise Here

Observation History for MARION REGIONAL


Time Wind
(mph)
Vis
(mi)
Weather Precip (in) Temperature (F) Relative
Humidity
Wind
Chill
(F)
Heat
Index
(F)
Pressure
Air Dwpt altimeter
(in)
sea level
(mb)
Rmks
10:35 PM CDT S 6.9 10.00 Clear -- 73.6 72.5 96% NA 75.2 30.03 1016.9
09:55 PM CDT 5.8 10.00 Light Drizzle -- 73.6 72.5 96% NA 75.2 30.04 1017.3
09:35 PM CDT 9.2 10.00 Light Rain -- 73.6 72.0 95% NA 75.0 30.04 1017.3
09:15 PM CDT 5.8 10.00 Rain -- 74.7 70.7 87% NA 75.9 30.04 1017.3
08:55 PM CDT S 4.7 10.00 Partly Cloudy -- 74.5 70.2 86% NA 75.7 30.04 1017.3
07:35 PM CDT S 5.8 10.00 Clear -- 75.7 70.3 83% NA 77.0 30.00 1015.9
06:45 PM CDT S 8.1 15.00 Mostly Cloudy -- 77.0 69.8 78% NA 78.1 29.97 1014.9
05:47 PM CDT 10.3 15.00 Mostly Cloudy -- 75.2 69.8 83% NA 76.3 29.98 1015.2
04:47 PM CDT 11.4 15.00 Cloudy -- 75.2 69.8 83% NA 76.3 30.01 1016.3
03:47 PM CDT 9.2 15.00 Cloudy -- 82.4 73.4 74% NA 88.3 30.01 1016.3
02:49 PM CDT S 9.2 15.00 Cloudy -- 84.2 73.4 70% NA 90.9 30.01 1016.3
01:45 PM CDT 13.9 10.00 Mostly Cloudy -- 84.2 73.4 70% NA 90.9 30.01 1016.3
10:45 AM CDT 11.4 10.00 Mostly Cloudy -- 86.0 73.4 66% NA 93.4 30.03 1016.9
07:45 AM CDT S 11.4 10.00 Clear -- 80.6 73.4 79% NA 85.3 30.01 1016.3
06:45 AM CDT S 9.2 10.00 NULL -- 78.8 73.4 84% NA 82.0 29.99 1015.6
06:35 AM CDT S 5.8 10.00 Clear -- 76.5 73.4 90% NA 78.1 29.99 1015.6
06:15 AM CDT S 6.9 10.00 Clear -- 76.3 73.2 90% NA 77.9 29.99 1015.6
05:35 AM CDT S 5.8 10.00 Clear -- 76.3 72.9 89% NA 77.7 29.99 1015.6
04:55 AM CDT 5.8 10.00 Clear -- 76.6 73.0 89% NA 78.3 29.98 1015.2
03:35 AM CDT 0.0 10.00 Clear -- 74.7 72.7 94% NA 76.3 29.97 1014.9
03:15 AM CDT 0.0 10.00 Clear -- 75.0 72.5 92% NA 76.5 29.97 1014.9
02:55 AM CDT 3.4 10.00 Clear -- 75.9 72.7 90% NA 77.4 29.97 1014.9
02:35 AM CDT 0.0 10.00 Clear -- 75.2 72.5 91% NA 76.6 29.97 1014.9
01:55 AM CDT 4.7 10.00 Clear -- 75.7 72.5 90% NA 77.2 29.97 1014.9

Regional Weather Observation


CARBONDALE/MURPH (KMDH)

Mostly Clear
75.0 F

PERRYVILLE (KPCD)

Mostly Cloudy
74.8 F

SPARTA (KSAR)

Partly Cloudy
73.6 F

CENTRALIA (KENL)

Clear
77.0 F

MOUNT VERNON (KMVN)

Clear
78.1 F

CAPE GIRARDEAU (KCGI)

Clear
75.0 F

Advertise Here


Advertise Here